Tracking 28091 objects as of 29-Sep-2023
HD Live streaming from Space Station
objects crossing your sky now

STARLINK-2462

Track STARLINK-2462 now!
10-day predictions
STARLINK-2462 is classified as:


NORAD ID: 48121
Int'l Code: 2021-027AF
Perigee: 553.6 km
Apogee: 555.2 km
Inclination: 53.1 °
Period: 95.6 minutes
Semi major axis: 6925 km
RCS: Unknown
Launch date: April 7, 2021
Source: United States (US)
Launch site: AIR FORCE EASTERN TEST RANGE (AFETR)
Your satellite tracking list
Your tracking list is empty




NASA's NSSDC Master Catalog

Two Line Element Set (TLE):
1 48121U 21027AF  23272.14416956  .00024118  00000-0  16331-2 0  9992
2 48121  53.0529 208.4123 0001146 131.2254 228.8834 15.06386150137632
Source of the keplerian elements: AFSPC